Weather History for KEED - August, 2013

Change the Weather History Date:

Sunday, August 4, 2013

  Actual Average Record
Temperature  
Mean Temperature 98 °F -  
Max Temperature 111 °F 107 °F 117 °F (1969)
Min Temperature 86 °F 83 °F 73 °F (1955)
Cooling Degree Days 32    
Growing Degree Days 48 (Base 50)    
Moisture  
Dew Point 39 °F    
Average Humidity 13    
Maximum Humidity 23    
Minimum Humidity 6    
Precipitation  
Precipitation 0.00 in - - ()
Sea Level Pressure  
Sea Level Pressure 29.71 in    
Wind  
Wind Speed 7 mph (SW)    
Max Wind Speed 14 mph    
Max Gust Speed 21 mph    
Visibility 10 miles    
Events      
Averages and records for this station are not official NWS values.
T = Trace of Precipitation, MM = Missing Value Source: NWS Daily Summary

Daily Weather History Graph

Daily Weather History Graph

Search for Another Location

Airport or City:

Trip Planner

Search our weather history database for the weather conditions in past years. The results will help you decide how hot, cold, wet, or windy it might be!

Date:

Astronomy

Aug. 04, 2013 Rise Set
Actual Time 5:50 AM PDT 7:37 PM PDT
Civil Twilight 5:23 AM PDT 8:05 PM PDT
Nautical Twilight 4:50 AM PDT 8:38 PM PDT
Astronomical Twilight 4:14 AM PDT 9:13 PM PDT
Moon 3:56 AM PDT 6:03 PM PDT
Length of Visible Light 14h 41m
Length of Day
13h 46m
Waning Crescent, 4% of the Moon is Illuminated
Aug 4
Waning Crescent
Aug 6
New
Aug 14
First Quarter
Aug 20
Full
Aug 28
Last Quarter

Hourly Weather History & Observations

Time (PDT) Temp. Dew Point Humidity Pressure Visibility Wind Dir Wind Speed Gust Speed Precip Events Conditions
12:56 AM 96.1 °F 43.0 °F 16% 29.70 in 10.0 mi SW 6.9 mph - N/A   Clear
1:56 AM 93.9 °F 44.1 °F 18% 29.70 in 10.0 mi SSE 8.1 mph - N/A   Clear
2:56 AM 91.9 °F 44.1 °F 19% 29.70 in 10.0 mi NW 3.5 mph - N/A   Clear
3:56 AM 91.0 °F 44.1 °F 20% 29.70 in 10.0 mi SW 5.8 mph - N/A   Clear
4:56 AM 89.1 °F 44.1 °F 21% 29.72 in 10.0 mi Calm Calm - N/A   Clear
5:56 AM 86.0 °F 44.1 °F 23% 29.73 in 10.0 mi NW 5.8 mph - N/A   Clear
6:56 AM 89.1 °F 45.0 °F 22% 29.75 in 10.0 mi WNW 4.6 mph - N/A   Clear
7:56 AM 93.0 °F 46.0 °F 20% 29.77 in 10.0 mi North 3.5 mph - N/A   Clear
8:56 AM 98.1 °F 42.1 °F 15% 29.77 in 10.0 mi SSW 8.1 mph - N/A   Clear
9:56 AM 100.9 °F 41.0 °F 13% 29.77 in 10.0 mi SW 8.1 mph - N/A   Partly Cloudy
10:56 AM 104.0 °F 39.9 °F 11% 29.76 in 10.0 mi East 9.2 mph - N/A   Partly Cloudy
11:56 AM 106.0 °F 32.0 °F 8% 29.75 in 10.0 mi SSW 13.8 mph 20.7 mph N/A   Clear
12:56 PM 108.0 °F 28.9 °F 6% 29.74 in 10.0 mi SW 13.8 mph 19.6 mph N/A   Scattered Clouds
1:56 PM 109.0 °F 33.1 °F 7% 29.72 in 10.0 mi SSW 11.5 mph 18.4 mph N/A   Scattered Clouds
2:56 PM 109.0 °F 34.0 °F 8% 29.69 in 10.0 mi Calm Calm - N/A   Mostly Cloudy
3:56 PM 109.9 °F 35.1 °F 8% 29.67 in 10.0 mi South 13.8 mph 18.4 mph N/A   Mostly Cloudy
4:56 PM 109.9 °F 36.0 °F 8% 29.66 in 10.0 mi SSW 12.7 mph - N/A   Overcast
5:56 PM 108.0 °F 36.0 °F 9% 29.65 in 10.0 mi SSW 10.4 mph 18.4 mph N/A   Mostly Cloudy
6:56 PM 108.0 °F 36.0 °F 9% 29.65 in 10.0 mi SSW 10.4 mph - N/A   Mostly Cloudy
7:56 PM 105.1 °F 36.0 °F 9% 29.66 in 10.0 mi SSW 10.4 mph - N/A   Mostly Cloudy
8:56 PM 102.0 °F 37.9 °F 11% 29.68 in 10.0 mi SSW 9.2 mph - N/A   Mostly Cloudy
9:56 PM 100.0 °F 39.0 °F 12% 29.69 in 10.0 mi WSW 11.5 mph - N/A   Scattered Clouds
10:56 PM 98.1 °F 39.9 °F 13% 29.70 in 10.0 mi WSW 9.2 mph - N/A   Partly Cloudy
11:56 PM 95.0 °F 39.0 °F 14% 29.70 in 10.0 mi WSW 9.2 mph - N/A   Clear